Time,TemperatureF,DewpointF,PressureIn,WindDirection,WindDirectionDegrees,WindSpeedMPH,WindSpeedGustMPH,Humidity,HourlyPrecipIn,Conditions,Clouds,dailyrainin,SoftwareType,DateUTC
2013-05-18 00:11:00,44.9,42.0,30.22,NNE,31,1.0,1.0,90,0.00,,,0.00,weatherlink.com 1.10,2013-05-18 04:11:00,
2013-05-18 00:26:00,44.5,42.0,30.22,NNE,31,0.0,1.0,90,0.00,,,0.00,weatherlink.com 1.10,2013-05-18 04:26:00,
2013-05-18 00:41:00,44.1,42.0,30.22,North,354,0.0,0.0,91,0.00,,,0.00,weatherlink.com 1.10,2013-05-18 04:41:00,
2013-05-18 00:56:00,43.6,42.0,30.22,North,354,0.0,0.0,92,0.00,,,0.00,weatherlink.com 1.10,2013-05-18 04:56:00,
2013-05-18 01:11:00,43.1,41.0,30.22,North,354,0.0,1.0,93,0.00,,,0.00,weatherlink.com 1.10,2013-05-18 05:11:00,
2013-05-18 01:26:00,42.6,41.0,30.22,North,6,0.0,1.0,93,0.00,,,0.00,weatherlink.com 1.10,2013-05-18 05:26:00,
2013-05-18 01:41:00,42.0,40.0,30.23,North,6,0.0,1.0,93,0.00,,,0.00,weatherlink.com 1.10,2013-05-18 05:41:00,
2013-05-18 01:56:00,41.8,40.0,30.23,North,350,0.0,1.0,93,0.00,,,0.00,weatherlink.com 1.10,2013-05-18 05:56:00,
2013-05-18 02:11:00,41.4,40.0,30.23,North,351,0.0,1.0,93,0.00,,,0.00,weatherlink.com 1.10,2013-05-18 06:11:00,
2013-05-18 02:26:00,41.1,40.0,30.23,North,351,0.0,1.0,94,0.00,,,0.00,weatherlink.com 1.10,2013-05-18 06:26:00,
2013-05-18 02:41:00,40.7,39.0,30.23,North,351,0.0,1.0,94,0.00,,,0.00,weatherlink.com 1.10,2013-05-18 06:41:00,
2013-05-18 02:56:00,40.5,39.0,30.23,North,352,0.0,1.0,94,0.00,,,0.00,weatherlink.com 1.10,2013-05-18 06:56:00,
2013-05-18 03:11:00,40.3,39.0,30.24,NNE,16,0.0,1.0,94,0.00,,,0.00,weatherlink.com 1.10,2013-05-18 07:11:00,
2013-05-18 03:26:00,40.0,39.0,30.24,NNE,16,0.0,1.0,95,0.00,,,0.00,weatherlink.com 1.10,2013-05-18 07:26:00,
2013-05-18 03:41:00,39.7,38.0,30.24,NNE,16,0.0,0.0,95,0.00,,,0.00,weatherlink.com 1.10,2013-05-18 07:41:00,
2013-05-18 03:56:00,39.5,38.0,30.25,NNE,16,0.0,1.0,95,0.00,,,0.00,weatherlink.com 1.10,2013-05-18 07:56:00,
2013-05-18 04:11:00,39.3,38.0,30.25,NNE,16,0.0,1.0,95,0.00,,,0.00,weatherlink.com 1.10,2013-05-18 08:11:00,
2013-05-18 04:26:00,39.1,38.0,30.25,NNE,16,0.0,1.0,95,0.00,,,0.00,weatherlink.com 1.10,2013-05-18 08:26:00,
2013-05-18 04:41:00,38.7,37.0,30.25,NNE,16,0.0,0.0,95,0.00,,,0.00,weatherlink.com 1.10,2013-05-18 08:41:00,
2013-05-18 04:56:00,38.2,37.0,30.26,NNE,16,0.0,0.0,95,0.00,,,0.00,weatherlink.com 1.10,2013-05-18 08:56:00,
2013-05-18 05:11:00,38.2,37.0,30.26,NNE,16,0.0,0.0,96,0.00,,,0.00,weatherlink.com 1.10,2013-05-18 09:11:00,
2013-05-18 05:26:00,38.2,37.0,30.27,NNE,16,0.0,0.0,96,0.00,,,0.00,weatherlink.com 1.10,2013-05-18 09:26:00,
2013-05-18 05:41:00,38.0,37.0,30.27,NNE,16,0.0,1.0,96,0.00,,,0.00,weatherlink.com 1.10,2013-05-18 09:41:00,
2013-05-18 05:57:00,38.2,37.0,30.27,NNE,16,0.0,0.0,96,0.00,,,0.00,weatherlink.com 1.10,2013-05-18 09:57:00,
2013-05-18 06:12:00,38.9,38.0,30.28,NNE,16,0.0,1.0,96,0.00,,,0.00,weatherlink.com 1.10,2013-05-18 10:12:00,
2013-05-18 06:27:00,41.4,41.0,30.28,NNE,16,0.0,0.0,97,0.00,,,0.00,weatherlink.com 1.10,2013-05-18 10:27:00,
2013-05-18 06:42:00,42.2,40.0,30.29,NNE,16,0.0,0.0,93,0.00,,,0.00,weatherlink.com 1.10,2013-05-18 10:42:00,
2013-05-18 06:57:00,43.1,42.0,30.29,NE,54,0.0,0.0,95,0.00,,,0.00,weatherlink.com 1.10,2013-05-18 10:57:00,
2013-05-18 07:12:00,45.5,44.0,30.29,East,85,0.0,2.0,93,0.00,,,0.00,weatherlink.com 1.10,2013-05-18 11:12:00,
2013-05-18 07:27:00,47.6,45.0,30.29,ESE,122,0.0,2.0,92,0.00,,,0.00,weatherlink.com 1.10,2013-05-18 11:27:00,
2013-05-18 07:42:00,48.4,45.0,30.30,SSE,153,2.0,4.0,89,0.00,,,0.00,weatherlink.com 1.10,2013-05-18 11:42:00,
2013-05-18 07:57:00,49.3,46.0,30.30,SE,131,2.0,3.0,88,0.00,,,0.00,weatherlink.com 1.10,2013-05-18 11:57:00,
2013-05-18 08:12:00,50.9,46.0,30.30,SE,140,4.0,5.0,82,0.00,,,0.00,weatherlink.com 1.10,2013-05-18 12:12:00,
2013-05-18 08:27:00,52.1,47.0,30.30,SE,133,2.0,5.0,82,0.00,,,0.00,weatherlink.com 1.10,2013-05-18 12:27:00,
2013-05-18 08:42:00,53.9,47.0,30.30,SSE,155,3.0,4.0,78,0.00,,,0.00,weatherlink.com 1.10,2013-05-18 12:42:00,
2013-05-18 08:57:00,55.6,48.0,30.30,ESE,114,2.0,4.0,76,0.00,,,0.00,weatherlink.com 1.10,2013-05-18 12:57:00,
2013-05-18 09:12:00,57.1,49.0,30.30,ESE,122,3.0,5.0,73,0.00,,,0.00,weatherlink.com 1.10,2013-05-18 13:12:00,
2013-05-18 09:27:00,58.9,48.0,30.30,SSE,153,3.0,5.0,68,0.00,,,0.00,weatherlink.com 1.10,2013-05-18 13:27:00,
2013-05-18 09:42:00,60.3,48.0,30.29,SE,140,1.0,5.0,64,0.00,,,0.00,weatherlink.com 1.10,2013-05-18 13:42:00,
2013-05-18 09:57:00,61.6,47.0,30.29,ESE,110,3.0,6.0,60,0.00,,,0.00,weatherlink.com 1.10,2013-05-18 13:57:00,
2013-05-18 10:12:00,63.0,44.0,30.29,SSE,148,3.0,7.0,51,0.00,,,0.00,weatherlink.com 1.10,2013-05-18 14:12:00,
2013-05-18 10:28:00,64.4,42.0,30.29,East,84,0.0,7.0,45,0.00,,,0.00,weatherlink.com 1.10,2013-05-18 14:28:00,
2013-05-18 10:43:00,65.3,43.0,30.28,SE,131,4.0,8.0,44,0.00,,,0.00,weatherlink.com 1.10,2013-05-18 14:43:00,
2013-05-18 10:58:00,66.3,42.0,30.28,ESE,121,8.0,8.0,42,0.00,,,0.00,weatherlink.com 1.10,2013-05-18 14:58:00,
2013-05-18 11:13:00,66.7,42.0,30.28,SSE,149,5.0,8.0,40,0.00,,,0.00,weatherlink.com 1.10,2013-05-18 15:13:00,
2013-05-18 11:28:00,67.4,41.0,30.27,SSE,164,4.0,10.0,39,0.00,,,0.00,weatherlink.com 1.10,2013-05-18 15:28:00,
2013-05-18 11:43:00,68.1,43.0,30.27,SE,130,3.0,6.0,41,0.00,,,0.00,weatherlink.com 1.10,2013-05-18 15:43:00,
2013-05-18 11:58:00,70.2,43.0,30.26,SSE,150,2.0,5.0,38,0.00,,,0.00,weatherlink.com 1.10,2013-05-18 15:58:00,
2013-05-18 12:13:00,71.4,42.0,30.26,SSE,155,4.0,8.0,34,0.00,,,0.00,weatherlink.com 1.10,2013-05-18 16:13:00,
2013-05-18 12:28:00,71.8,41.0,30.25,SSE,162,3.0,6.0,33,0.00,,,0.00,weatherlink.com 1.10,2013-05-18 16:28:00,
2013-05-18 12:43:00,71.9,43.0,30.24,SE,141,9.0,9.0,36,0.00,,,0.00,weatherlink.com 1.10,2013-05-18 16:43:00,
2013-05-18 12:58:00,70.9,38.0,30.24,ENE,76,4.0,8.0,30,0.00,,,0.00,weatherlink.com 1.10,2013-05-18 16:58:00,
2013-05-18 13:13:00,71.0,39.0,30.23,South,190,3.0,11.0,31,0.00,,,0.00,weatherlink.com 1.10,2013-05-18 17:13:00,
2013-05-18 13:28:00,71.5,38.0,30.23,SSW,211,3.0,9.0,29,0.00,,,0.00,weatherlink.com 1.10,2013-05-18 17:28:00,
2013-05-18 13:43:00,72.0,38.0,30.23,SSW,194,1.0,10.0,29,0.00,,,0.00,weatherlink.com 1.10,2013-05-18 17:43:00,
2013-05-18 13:58:00,72.1,36.0,30.22,SE,138,3.0,10.0,27,0.00,,,0.00,weatherlink.com 1.10,2013-05-18 17:58:00,
2013-05-18 14:13:00,72.3,39.0,30.22,SSE,158,6.0,8.0,30,0.00,,,0.00,weatherlink.com 1.10,2013-05-18 18:13:00,
2013-05-18 14:28:00,71.8,37.0,30.21,NNE,23,0.0,12.0,28,0.00,,,0.00,weatherlink.com 1.10,2013-05-18 18:28:00,
2013-05-18 14:43:00,72.4,37.0,30.20,SE,141,4.0,8.0,28,0.00,,,0.00,weatherlink.com 1.10,2013-05-18 18:43:00,
2013-05-18 14:58:00,73.3,36.0,30.20,East,98,6.0,10.0,26,0.00,,,0.00,weatherlink.com 1.10,2013-05-18 18:58:00,
2013-05-18 15:13:00,73.1,38.0,30.20,ESE,117,1.0,10.0,28,0.00,,,0.00,weatherlink.com 1.10,2013-05-18 19:13:00,
2013-05-18 15:28:00,72.3,35.0,30.19,NE,56,3.0,10.0,26,0.00,,,0.00,weatherlink.com 1.10,2013-05-18 19:28:00,
2013-05-18 15:44:00,73.5,36.0,30.19,SSE,158,3.0,11.0,26,0.00,,,0.00,weatherlink.com 1.10,2013-05-18 19:44:00,
2013-05-18 15:58:00,73.3,35.0,30.19,SE,136,4.0,12.0,25,0.00,,,0.00,weatherlink.com 1.10,2013-05-18 19:58:00,
2013-05-18 16:13:00,73.6,37.0,30.18,SSW,202,3.0,9.0,26,0.00,,,0.00,weatherlink.com 1.10,2013-05-18 20:13:00,
2013-05-18 16:28:00,73.6,38.0,30.18,SE,135,1.0,8.0,28,0.00,,,0.00,weatherlink.com 1.10,2013-05-18 20:28:00,
2013-05-18 16:43:00,74.0,37.0,30.18,SE,143,2.0,9.0,26,0.00,,,0.00,weatherlink.com 1.10,2013-05-18 20:43:00,
2013-05-18 16:58:00,73.9,36.0,30.18,SSE,152,4.0,7.0,25,0.00,,,0.00,weatherlink.com 1.10,2013-05-18 20:58:00,
2013-05-18 17:13:00,73.8,38.0,30.18,SSE,155,3.0,11.0,27,0.00,,,0.00,weatherlink.com 1.10,2013-05-18 21:13:00,
2013-05-18 17:28:00,73.7,37.0,30.17,SE,141,3.0,9.0,26,0.00,,,0.00,weatherlink.com 1.10,2013-05-18 21:28:00,
2013-05-18 17:44:00,73.9,37.0,30.17,SE,146,1.0,7.0,26,0.00,,,0.00,weatherlink.com 1.10,2013-05-18 21:44:00,
2013-05-18 17:59:00,73.6,38.0,30.17,SSE,153,1.0,7.0,28,0.00,,,0.00,weatherlink.com 1.10,2013-05-18 21:59:00,
2013-05-18 18:14:00,74.2,36.0,30.17,WNW,290,5.0,11.0,25,0.00,,,0.00,weatherlink.com 1.10,2013-05-18 22:14:00,
2013-05-18 18:29:00,73.7,37.0,30.17,WSW,242,2.0,7.0,26,0.00,,,0.00,weatherlink.com 1.10,2013-05-18 22:29:00,
2013-05-18 18:44:00,73.5,38.0,30.18,WNW,286,5.0,8.0,28,0.00,,,0.00,weatherlink.com 1.10,2013-05-18 22:44:00,
2013-05-18 18:59:00,73.1,37.0,30.18,West,269,2.0,8.0,27,0.00,,,0.00,weatherlink.com 1.10,2013-05-18 22:59:00,
2013-05-18 19:14:00,72.0,38.0,30.18,SW,218,2.0,6.0,29,0.00,,,0.00,weatherlink.com 1.10,2013-05-18 23:14:00,
2013-05-18 19:29:00,70.6,37.0,30.19,SSW,207,1.0,4.0,29,0.00,,,0.00,weatherlink.com 1.10,2013-05-18 23:29:00,
2013-05-18 19:44:00,69.3,39.0,30.19,WNW,303,0.0,2.0,33,0.00,,,0.00,weatherlink.com 1.10,2013-05-18 23:44:00,
2013-05-18 19:59:00,64.5,40.0,30.19,NNE,19,1.0,2.0,41,0.00,,,0.00,weatherlink.com 1.10,2013-05-18 23:59:00,
2013-05-18 20:14:00,61.8,41.0,30.19,NNE,19,0.0,1.0,46,0.00,,,0.00,weatherlink.com 1.10,2013-05-19 00:14:00,
2013-05-18 20:29:00,59.4,42.0,30.19,NNE,20,1.0,1.0,53,0.00,,,0.00,weatherlink.com 1.10,2013-05-19 00:29:00,
2013-05-18 20:44:00,57.6,42.0,30.20,NNE,27,0.0,1.0,56,0.00,,,0.00,weatherlink.com 1.10,2013-05-19 00:44:00,
2013-05-18 20:59:00,57.0,43.0,30.20,NNE,21,0.0,2.0,60,0.00,,,0.00,weatherlink.com 1.10,2013-05-19 00:59:00,
2013-05-18 21:14:00,55.9,44.0,30.20,NNE,23,1.0,1.0,64,0.00,,,0.00,weatherlink.com 1.10,2013-05-19 01:14:00,
2013-05-18 21:29:00,56.2,44.0,30.21,NNW,327,0.0,2.0,65,0.00,,,0.00,weatherlink.com 1.10,2013-05-19 01:29:00,
2013-05-18 21:44:00,54.5,44.0,30.21,NNE,19,0.0,1.0,69,0.00,,,0.00,weatherlink.com 1.10,2013-05-19 01:44:00,
2013-05-18 21:59:00,54.1,44.0,30.21,NNE,19,0.0,1.0,69,0.00,,,0.00,weatherlink.com 1.10,2013-05-19 01:59:00,
2013-05-18 22:14:00,54.3,44.0,30.21,West,277,0.0,1.0,69,0.00,,,0.00,weatherlink.com 1.10,2013-05-19 02:14:00,
2013-05-18 22:29:00,52.8,44.0,30.22,NNE,28,1.0,1.0,73,0.00,,,0.00,weatherlink.com 1.10,2013-05-19 02:29:00,
2013-05-18 22:44:00,52.3,45.0,30.22,NNE,28,0.0,1.0,75,0.00,,,0.00,weatherlink.com 1.10,2013-05-19 02:44:00,
2013-05-18 22:59:00,52.1,44.0,30.22,NNE,28,0.0,0.0,75,0.00,,,0.00,weatherlink.com 1.10,2013-05-19 02:59:00,
2013-05-18 23:14:00,51.6,45.0,30.21,North,354,0.0,1.0,78,0.00,,,0.00,weatherlink.com 1.10,2013-05-19 03:14:00,
2013-05-18 23:29:00,51.1,45.0,30.22,North,2,0.0,1.0,80,0.00,,,0.00,weatherlink.com 1.10,2013-05-19 03:29:00,
2013-05-18 23:44:00,50.9,45.0,30.22,NNE,24,1.0,1.0,81,0.00,,,0.00,weatherlink.com 1.10,2013-05-19 03:44:00,
2013-05-18 23:59:00,50.8,46.0,30.23,NNE,15,0.0,2.0,82,0.00,,,0.00,weatherlink.com 1.10,2013-05-19 03:59:00,